Time,TemperatureF,DewpointF,PressureIn,WindDirection,WindDirectionDegrees,WindSpeedMPH,WindSpeedGustMPH,Humidity,HourlyPrecipIn,Conditions,Clouds,dailyrainin,SolarRadiationWatts/m^2,SoftwareType,DateUTC
2013-04-16 00:00:00,57.8,54.9,30.19,North,355,0.0,2.0,90,0.00,RA,SCT,0.00,0.0,WeatherDisplay:10.37,2013-04-16 04:00:00,
2013-04-16 00:05:00,57.8,54.9,30.20,North,355,0.0,2.0,90,0.00,RA,SCT,0.00,0.0,WeatherDisplay:10.37,2013-04-16 04:05:00,
2013-04-16 00:10:00,57.8,54.9,30.19,North,355,0.0,2.0,90,0.00,,SCT,0.00,0.0,WeatherDisplay:10.37,2013-04-16 04:10:00,
2013-04-16 00:15:00,57.8,54.9,30.20,North,355,1.0,2.0,90,0.00,,SCT,0.00,0.0,WeatherDisplay:10.37,2013-04-16 04:15:00,
2013-04-16 00:20:00,57.8,54.9,30.20,North,355,1.0,3.0,90,0.00,,SCT,0.00,0.0,WeatherDisplay:10.37,2013-04-16 04:20:00,
2013-04-16 00:25:00,57.8,54.9,30.20,North,355,1.0,3.0,90,0.00,,SCT,0.00,0.0,WeatherDisplay:10.37,2013-04-16 04:25:00,
2013-04-16 00:30:00,57.8,54.9,30.20,North,355,2.0,4.0,90,0.00,,SCT,0.00,0.0,WeatherDisplay:10.37,2013-04-16 04:30:00,
2013-04-16 00:35:00,57.8,54.9,30.20,North,355,0.0,3.0,90,0.00,,SCT,0.00,0.0,WeatherDisplay:10.37,2013-04-16 04:35:00,
2013-04-16 00:40:00,57.8,54.9,30.20,North,355,1.0,2.0,90,0.00,,SCT,0.00,0.0,WeatherDisplay:10.37,2013-04-16 04:40:00,
2013-04-16 00:45:00,57.8,54.9,30.20,North,355,0.0,3.0,90,0.00,,SCT,0.00,0.0,WeatherDisplay:10.37,2013-04-16 04:45:00,
2013-04-16 00:50:00,57.8,54.9,30.20,North,355,1.0,3.0,90,0.00,,SCT,0.00,0.0,WeatherDisplay:10.37,2013-04-16 04:50:00,
2013-04-16 00:55:00,57.8,54.9,30.20,North,355,1.0,4.0,90,0.00,,SCT,0.00,0.0,WeatherDisplay:10.37,2013-04-16 04:55:00,
2013-04-16 01:00:00,57.8,54.9,30.20,North,355,1.0,4.0,90,0.00,,SCT,0.00,0.0,WeatherDisplay:10.37,2013-04-16 05:00:00,
2013-04-16 01:10:00,57.8,54.9,30.20,North,355,0.0,2.0,90,0.00,,SCT,0.00,0.0,WeatherDisplay:10.37,2013-04-16 05:10:00,
2013-04-16 01:15:00,57.8,54.9,30.20,North,355,1.0,2.0,90,0.00,,SCT,0.00,0.0,WeatherDisplay:10.37,2013-04-16 05:15:00,
2013-04-16 01:20:00,57.8,54.9,30.20,North,355,0.0,3.0,90,0.00,,SCT,0.00,0.0,WeatherDisplay:10.37,2013-04-16 05:20:00,
2013-04-16 01:25:00,57.8,54.9,30.20,North,355,2.0,4.0,90,0.00,,SCT,0.00,0.0,WeatherDisplay:10.37,2013-04-16 05:25:00,
2013-04-16 01:30:00,57.8,54.9,30.20,North,355,0.0,4.0,90,0.00,,SCT,0.00,0.0,WeatherDisplay:10.37,2013-04-16 05:30:00,
2013-04-16 01:35:00,57.9,55.0,30.20,North,355,1.0,3.0,90,0.00,,SCT,0.00,0.0,WeatherDisplay:10.37,2013-04-16 05:35:00,
2013-04-16 01:40:00,57.9,54.9,30.20,North,355,0.0,3.0,90,0.00,,SCT,0.00,0.0,WeatherDisplay:10.37,2013-04-16 05:40:00,
2013-04-16 01:45:00,57.9,54.9,30.20,North,355,0.0,3.0,90,0.00,,SCT,0.00,0.0,WeatherDisplay:10.37,2013-04-16 05:45:00,
2013-04-16 01:50:00,57.9,54.9,30.20,North,355,0.0,3.0,90,0.00,,SCT,0.00,0.0,WeatherDisplay:10.37,2013-04-16 05:50:00,
2013-04-16 01:55:00,57.9,54.9,30.20,North,355,0.0,2.0,90,0.00,,SCT,0.00,0.0,WeatherDisplay:10.37,2013-04-16 05:55:00,
2013-04-16 02:00:00,57.9,54.9,30.20,North,355,0.0,1.0,90,0.00,,SCT,0.00,0.0,WeatherDisplay:10.37,2013-04-16 06:00:00,
2013-04-16 02:05:00,57.9,55.0,30.20,North,355,0.0,1.0,90,0.00,,SCT,0.00,0.0,WeatherDisplay:10.37,2013-04-16 06:05:00,
2013-04-16 02:10:00,57.8,54.9,30.20,North,355,0.0,1.0,90,0.00,,SCT,0.00,0.0,WeatherDisplay:10.37,2013-04-16 06:10:00,
2013-04-16 02:15:00,57.8,54.9,30.20,North,355,0.0,0.0,90,0.00,,SCT,0.00,0.0,WeatherDisplay:10.37,2013-04-16 06:15:00,
2013-04-16 02:25:00,57.8,54.9,30.20,North,355,0.0,1.0,90,0.00,,SCT,0.00,0.0,WeatherDisplay:10.37,2013-04-16 06:25:00,
2013-04-16 02:30:00,57.8,54.9,30.20,North,355,0.0,1.0,90,0.00,,SCT,0.00,0.0,WeatherDisplay:10.37,2013-04-16 06:30:00,
2013-04-16 02:35:00,57.8,54.9,30.19,North,355,0.0,1.0,90,0.00,,SCT,0.00,0.0,WeatherDisplay:10.37,2013-04-16 06:35:00,
2013-04-16 02:40:00,57.8,54.9,30.19,North,355,0.0,1.0,90,0.00,,SCT,0.00,0.0,WeatherDisplay:10.37,2013-04-16 06:40:00,
2013-04-16 02:45:00,57.8,54.9,30.19,North,355,0.0,1.0,90,0.00,,SCT,0.00,0.0,WeatherDisplay:10.37,2013-04-16 06:45:00,
2013-04-16 02:50:00,57.8,54.9,30.19,North,355,0.0,0.0,90,0.00,,SCT,0.00,0.0,WeatherDisplay:10.37,2013-04-16 06:50:00,
2013-04-16 02:55:00,57.8,54.9,30.19,North,355,0.0,1.0,90,0.00,,SCT,0.00,0.0,WeatherDisplay:10.37,2013-04-16 06:55:00,
2013-04-16 03:00:00,57.8,54.6,30.20,North,355,0.0,0.0,89,0.00,,SCT,0.00,0.0,WeatherDisplay:10.37,2013-04-16 07:00:00,
2013-04-16 03:05:00,57.8,54.6,30.20,North,355,0.0,0.0,89,0.00,,SCT,0.00,0.0,WeatherDisplay:10.37,2013-04-16 07:05:00,
2013-04-16 03:10:00,57.8,54.6,30.20,North,355,0.0,0.0,89,0.00,,SCT,0.00,0.0,WeatherDisplay:10.37,2013-04-16 07:10:00,
2013-04-16 03:15:00,57.8,54.9,30.19,North,355,0.0,0.0,90,0.00,,SCT,0.00,0.0,WeatherDisplay:10.37,2013-04-16 07:15:00,
2013-04-16 03:20:00,57.8,54.9,30.19,North,355,0.0,0.0,90,0.00,,SCT,0.00,0.0,WeatherDisplay:10.37,2013-04-16 07:20:00,
2013-04-16 03:25:00,57.8,54.9,30.19,North,355,0.0,1.0,90,0.00,,SCT,0.00,0.0,WeatherDisplay:10.37,2013-04-16 07:25:00,
2013-04-16 03:30:00,57.7,54.8,30.19,North,355,0.0,0.0,90,0.00,,SCT,0.00,0.0,WeatherDisplay:10.37,2013-04-16 07:30:00,
2013-04-16 03:35:00,57.7,54.8,30.19,North,355,0.0,0.0,90,0.00,,SCT,0.00,0.0,WeatherDisplay:10.37,2013-04-16 07:35:00,
2013-04-16 03:40:00,57.7,54.8,30.19,North,355,0.0,0.0,90,0.00,,SCT,0.00,0.0,WeatherDisplay:10.37,2013-04-16 07:40:00,
2013-04-16 03:45:00,57.7,54.8,30.19,North,355,0.0,0.0,90,0.00,,SCT,0.00,0.0,WeatherDisplay:10.37,2013-04-16 07:45:00,
2013-04-16 03:50:00,57.7,54.8,30.19,North,355,0.0,0.0,90,0.00,,SCT,0.00,0.0,WeatherDisplay:10.37,2013-04-16 07:50:00,
2013-04-16 03:55:00,57.7,54.8,30.19,North,355,0.0,0.0,90,0.00,,SCT,0.00,0.0,WeatherDisplay:10.37,2013-04-16 07:55:00,
2013-04-16 04:05:00,57.6,54.7,30.19,North,355,0.0,0.0,90,0.00,,SCT,0.00,0.0,WeatherDisplay:10.37,2013-04-16 08:05:00,
2013-04-16 04:10:00,57.6,54.7,30.19,North,355,0.0,0.0,90,0.00,,SCT,0.00,0.0,WeatherDisplay:10.37,2013-04-16 08:10:00,
2013-04-16 04:15:00,57.6,54.7,30.19,North,355,0.0,0.0,90,0.00,,SCT,0.00,0.0,WeatherDisplay:10.37,2013-04-16 08:15:00,
2013-04-16 04:20:00,57.6,54.7,30.19,North,355,0.0,2.0,90,0.00,,SCT,0.00,0.0,WeatherDisplay:10.37,2013-04-16 08:20:00,
2013-04-16 04:25:00,57.6,54.7,30.19,North,355,0.0,1.0,90,0.00,,SCT,0.00,0.0,WeatherDisplay:10.37,2013-04-16 08:25:00,
2013-04-16 04:30:00,57.6,54.7,30.20,North,355,3.0,5.0,90,0.00,,SCT,0.00,0.0,WeatherDisplay:10.37,2013-04-16 08:30:00,
2013-04-16 04:35:00,57.6,54.7,30.20,North,355,0.0,5.0,90,0.00,,SCT,0.00,0.0,WeatherDisplay:10.37,2013-04-16 08:35:00,
2013-04-16 04:40:00,57.6,54.7,30.20,North,355,2.0,3.0,90,0.00,,SCT,0.00,0.0,WeatherDisplay:10.37,2013-04-16 08:40:00,
2013-04-16 04:45:00,57.7,54.8,30.20,North,355,2.0,4.0,90,0.00,,SCT,0.00,0.0,WeatherDisplay:10.37,2013-04-16 08:45:00,
2013-04-16 04:50:00,57.7,54.8,30.20,North,355,1.0,3.0,90,0.00,,SCT,0.00,0.0,WeatherDisplay:10.37,2013-04-16 08:50:00,
2013-04-16 04:55:00,57.7,54.8,30.20,North,355,0.0,2.0,90,0.00,,SCT,0.00,0.0,WeatherDisplay:10.37,2013-04-16 08:55:00,
2013-04-16 05:00:00,57.7,54.8,30.20,North,355,0.0,5.0,90,0.00,,SCT,0.00,0.0,WeatherDisplay:10.37,2013-04-16 09:00:00,
2013-04-16 05:05:00,57.6,54.7,30.20,North,355,0.0,0.0,90,0.00,,SCT,0.00,0.0,WeatherDisplay:10.37,2013-04-16 09:05:00,
2013-04-16 05:10:00,57.5,54.6,30.20,North,355,0.0,0.0,90,0.00,,SCT,0.00,0.0,WeatherDisplay:10.37,2013-04-16 09:10:00,
2013-04-16 05:15:00,57.5,54.6,30.20,North,355,0.0,0.0,90,0.00,,SCT,0.00,0.0,WeatherDisplay:10.37,2013-04-16 09:15:00,
2013-04-16 05:20:00,57.4,54.5,30.20,North,355,0.0,0.0,90,0.00,,SCT,0.00,0.0,WeatherDisplay:10.37,2013-04-16 09:20:00,
2013-04-16 05:25:00,57.3,54.4,30.20,North,355,0.0,0.0,90,0.00,,SCT,0.00,0.0,WeatherDisplay:10.37,2013-04-16 09:25:00,
2013-04-16 05:30:00,57.2,54.3,30.20,North,355,0.0,0.0,90,0.00,,SCT,0.00,0.0,WeatherDisplay:10.37,2013-04-16 09:30:00,
2013-04-16 05:35:00,57.0,54.1,30.20,North,355,0.0,5.0,90,0.00,,SCT,0.00,0.0,WeatherDisplay:10.37,2013-04-16 09:35:00,
2013-04-16 05:40:00,56.9,54.0,30.20,North,355,0.0,0.0,90,0.00,,SCT,0.00,0.0,WeatherDisplay:10.37,2013-04-16 09:40:00,
2013-04-16 05:45:00,56.7,53.8,30.20,North,355,0.0,0.0,90,0.00,,SCT,0.00,0.0,WeatherDisplay:10.37,2013-04-16 09:45:00,
2013-04-16 05:50:00,56.6,53.4,30.20,North,355,0.0,0.0,89,0.00,,SCT,0.00,0.0,WeatherDisplay:10.37,2013-04-16 09:50:00,
2013-04-16 05:55:00,56.4,53.2,30.20,North,355,0.0,0.0,89,0.00,,SCT,0.00,0.0,WeatherDisplay:10.37,2013-04-16 09:55:00,
2013-04-16 06:00:00,56.2,53.0,30.20,North,355,0.0,5.0,89,0.00,,SCT,0.00,0.0,WeatherDisplay:10.37,2013-04-16 10:00:00,
2013-04-16 06:05:00,56.0,52.8,30.20,North,355,0.0,0.0,89,0.00,,SCT,0.00,0.0,WeatherDisplay:10.37,2013-04-16 10:05:00,
2013-04-16 06:10:00,55.9,52.7,30.20,North,355,0.0,5.0,89,0.00,,SCT,0.00,0.0,WeatherDisplay:10.37,2013-04-16 10:10:00,
2013-04-16 06:15:00,55.7,52.5,30.20,North,355,0.0,1.0,89,0.00,,SCT,0.00,0.0,WeatherDisplay:10.37,2013-04-16 10:15:00,
2013-04-16 06:20:00,55.6,52.4,30.20,North,355,0.0,0.0,89,0.00,,SCT,0.00,0.0,WeatherDisplay:10.37,2013-04-16 10:20:00,
2013-04-16 06:25:00,55.5,52.3,30.21,North,355,0.0,0.0,89,0.00,,SCT,0.00,0.0,WeatherDisplay:10.37,2013-04-16 10:25:00,
2013-04-16 06:30:00,55.5,52.6,30.20,North,355,0.0,0.0,90,0.00,,SCT,0.00,0.0,WeatherDisplay:10.37,2013-04-16 10:30:00,
2013-04-16 06:35:00,55.7,52.8,30.21,North,355,0.0,5.0,90,0.00,,SCT,0.00,0.0,WeatherDisplay:10.37,2013-04-16 10:35:00,
2013-04-16 06:45:00,55.7,52.8,30.21,North,355,0.0,0.0,90,0.00,,SCT,0.00,0.0,WeatherDisplay:10.37,2013-04-16 10:45:00,
2013-04-16 06:50:00,55.7,53.1,30.22,North,355,0.0,5.0,91,0.00,,SCT,0.00,0.0,WeatherDisplay:10.37,2013-04-16 10:50:00,
2013-04-16 06:55:00,55.7,53.1,30.22,North,355,0.0,5.0,91,0.00,,SCT,0.00,5.0,WeatherDisplay:10.37,2013-04-16 10:55:00,
2013-04-16 07:00:00,55.7,53.1,30.22,North,355,0.0,0.0,91,0.00,,SCT,0.00,9.0,WeatherDisplay:10.37,2013-04-16 11:00:00,
2013-04-16 07:05:00,55.7,53.1,30.22,North,355,0.0,0.0,91,0.00,,SCT,0.00,11.0,WeatherDisplay:10.37,2013-04-16 11:05:00,
2013-04-16 07:10:00,55.6,53.0,30.22,North,355,0.0,0.0,91,0.00,,SCT,0.00,12.0,WeatherDisplay:10.37,2013-04-16 11:10:00,
2013-04-16 07:15:00,55.6,53.0,30.22,North,355,0.0,5.0,91,0.00,BKN,SCT,0.00,16.0,WeatherDisplay:10.37,2013-04-16 11:15:00,
2013-04-16 07:20:00,55.6,53.0,30.23,North,355,0.0,1.0,91,0.00,BKN,SCT,0.00,19.0,WeatherDisplay:10.37,2013-04-16 11:20:00,
2013-04-16 07:25:00,55.7,53.1,30.23,North,355,0.0,1.0,91,0.00,BKN,SCT,0.00,23.0,WeatherDisplay:10.37,2013-04-16 11:25:00,
2013-04-16 07:30:00,55.8,53.2,30.23,North,355,0.0,0.0,91,0.00,BKN,SCT,0.00,30.0,WeatherDisplay:10.37,2013-04-16 11:30:00,
2013-04-16 07:35:00,55.8,53.3,30.23,North,355,0.0,0.0,91,0.00,SCT,SCT,0.00,44.0,WeatherDisplay:10.37,2013-04-16 11:35:00,
2013-04-16 07:40:00,55.9,53.3,30.23,North,355,0.0,0.0,91,0.00,BKN,SCT,0.00,42.0,WeatherDisplay:10.37,2013-04-16 11:40:00,
2013-04-16 07:45:00,56.0,53.4,30.23,North,355,0.0,5.0,91,0.00,BKN,SCT,0.00,37.0,WeatherDisplay:10.37,2013-04-16 11:45:00,
2013-04-16 07:50:00,56.2,53.6,30.24,North,355,1.0,1.0,91,0.00,BKN,SCT,0.00,46.0,WeatherDisplay:10.37,2013-04-16 11:50:00,
2013-04-16 07:55:00,56.2,53.6,30.24,North,355,0.0,5.0,91,0.00,BKN,SCT,0.00,83.0,WeatherDisplay:10.37,2013-04-16 11:55:00,
2013-04-16 08:00:00,56.3,53.7,30.24,North,355,0.0,1.0,91,0.00,SCT,SCT,0.00,86.0,WeatherDisplay:10.37,2013-04-16 12:00:00,
2013-04-16 08:05:00,56.6,54.3,30.24,North,355,0.0,2.0,92,0.00,SCT,SCT,0.00,81.0,WeatherDisplay:10.37,2013-04-16 12:05:00,
2013-04-16 08:10:00,56.8,54.5,30.24,NNW,330,1.0,3.0,92,0.00,SCT,SCT,0.00,63.0,WeatherDisplay:10.37,2013-04-16 12:10:00,
2013-04-16 08:15:00,57.1,54.8,30.25,North,351,1.0,6.0,92,0.00,BKN,SCT,0.00,113.0,WeatherDisplay:10.37,2013-04-16 12:15:00,
2013-04-16 08:20:00,57.5,55.2,30.25,North,359,0.0,4.0,92,0.00,SCT,SCT,0.00,123.0,WeatherDisplay:10.37,2013-04-16 12:20:00,
2013-04-16 08:25:00,57.9,55.5,30.25,North,4,1.0,3.0,92,0.00,SCT,SCT,0.00,113.0,WeatherDisplay:10.37,2013-04-16 12:25:00,
2013-04-16 08:30:00,58.0,55.7,30.25,North,2,2.0,4.0,92,0.00,BKN,SCT,0.00,72.0,WeatherDisplay:10.37,2013-04-16 12:30:00,
2013-04-16 08:35:00,58.1,55.8,30.25,North,3,0.0,3.0,92,0.00,BKN,SCT,0.00,104.0,WeatherDisplay:10.37,2013-04-16 12:35:00,
2013-04-16 08:40:00,58.5,56.2,30.25,North,4,1.0,4.0,92,0.00,BKN,SCT,0.00,93.0,WeatherDisplay:10.37,2013-04-16 12:40:00,
2013-04-16 08:45:00,59.0,57.0,30.26,North,3,0.0,3.0,93,0.00,BKN,SCT,0.00,148.0,WeatherDisplay:10.37,2013-04-16 12:45:00,
2013-04-16 08:50:00,59.0,56.7,30.26,North,3,2.0,4.0,92,0.00,BKN,SCT,0.00,163.0,WeatherDisplay:10.37,2013-04-16 12:50:00,
2013-04-16 09:00:00,59.4,57.1,30.26,North,3,2.0,4.0,92,0.00,SCT,SCT,0.00,181.0,WeatherDisplay:10.37,2013-04-16 13:00:00,
2013-04-16 09:05:00,59.7,57.4,30.26,North,3,2.0,4.0,92,0.00,SCT,SCT,0.00,185.0,WeatherDisplay:10.37,2013-04-16 13:05:00,
2013-04-16 09:15:00,60.5,57.8,30.26,North,2,0.0,2.0,91,0.00,SCT,SCT,0.00,374.0,WeatherDisplay:10.37,2013-04-16 13:15:00,
2013-04-16 09:20:00,61.1,58.4,30.26,North,4,1.0,3.0,91,0.00,FEW,SCT,0.00,297.0,WeatherDisplay:10.37,2013-04-16 13:20:00,
2013-04-16 09:25:00,61.4,58.4,30.27,North,3,0.0,3.0,90,0.00,SCT,SCT,0.00,206.0,WeatherDisplay:10.37,2013-04-16 13:25:00,
2013-04-16 09:30:00,61.6,58.4,30.27,North,3,2.0,4.0,89,0.00,SCT,SCT,0.00,209.0,WeatherDisplay:10.37,2013-04-16 13:30:00,
2013-04-16 09:35:00,61.9,58.6,30.27,North,4,0.0,2.0,89,0.00,BKN,SCT,0.00,213.0,WeatherDisplay:10.37,2013-04-16 13:35:00,
2013-04-16 09:40:00,62.1,58.8,30.27,North,7,0.0,1.0,89,0.00,SCT,SCT,0.00,309.0,WeatherDisplay:10.37,2013-04-16 13:40:00,
2013-04-16 09:45:00,62.3,58.7,30.27,NNE,13,1.0,3.0,88,0.00,SCT,SCT,0.00,250.0,WeatherDisplay:10.37,2013-04-16 13:45:00,
2013-04-16 09:50:00,62.5,58.6,30.27,NNE,13,0.0,2.0,87,0.00,SCT,SCT,0.00,243.0,WeatherDisplay:10.37,2013-04-16 13:50:00,
2013-04-16 09:55:00,62.6,58.7,30.27,North,8,0.0,2.0,87,0.00,SCT,SCT,0.00,267.0,WeatherDisplay:10.37,2013-04-16 13:55:00,
2013-04-16 10:00:00,62.9,59.0,30.27,North,3,1.0,2.0,87,0.00,SCT,SCT,0.00,346.0,WeatherDisplay:10.37,2013-04-16 14:00:00,
2013-04-16 10:05:00,63.2,59.3,30.27,North,3,0.0,2.0,87,0.00,SCT,SCT,0.00,288.0,WeatherDisplay:10.37,2013-04-16 14:05:00,
2013-04-16 10:10:00,63.4,59.1,30.27,North,2,0.0,3.0,86,0.00,SCT,SCT,0.00,258.0,WeatherDisplay:10.37,2013-04-16 14:10:00,
2013-04-16 10:15:00,63.5,58.9,30.28,North,3,1.0,4.0,85,0.00,BKN,SCT,0.00,209.0,WeatherDisplay:10.37,2013-04-16 14:15:00,
2013-04-16 10:20:00,63.7,59.1,30.28,North,4,0.0,2.0,85,0.00,BKN,SCT,0.00,204.0,WeatherDisplay:10.37,2013-04-16 14:20:00,
2013-04-16 10:25:00,63.7,59.1,30.28,North,4,2.0,4.0,85,0.00,BKN,SCT,0.00,248.0,WeatherDisplay:10.37,2013-04-16 14:25:00,
2013-04-16 10:30:00,63.8,59.2,30.28,North,3,1.0,3.0,85,0.00,BKN,SCT,0.00,262.0,WeatherDisplay:10.37,2013-04-16 14:30:00,
2013-04-16 10:35:00,63.9,59.3,30.28,North,3,1.0,4.0,85,0.00,BKN,SCT,0.00,316.0,WeatherDisplay:10.37,2013-04-16 14:35:00,
2013-04-16 10:40:00,64.0,59.4,30.28,North,3,1.0,6.0,85,0.00,BKN,SCT,0.00,366.0,WeatherDisplay:10.37,2013-04-16 14:40:00,
2013-04-16 10:45:00,64.2,59.6,30.28,North,350,3.0,6.0,85,0.00,SCT,SCT,0.00,387.0,WeatherDisplay:10.37,2013-04-16 14:45:00,
2013-04-16 10:50:00,64.3,59.7,30.29,NNW,331,2.0,6.0,85,0.00,SCT,SCT,0.00,193.0,WeatherDisplay:10.37,2013-04-16 14:50:00,
2013-04-16 10:55:00,64.5,59.6,30.28,NW,321,2.0,5.0,84,0.00,BKN,SCT,0.00,306.0,WeatherDisplay:10.37,2013-04-16 14:55:00,
2013-04-16 11:00:00,64.5,59.6,30.28,NW,320,1.0,4.0,84,0.00,BKN,SCT,0.00,327.0,WeatherDisplay:10.37,2013-04-16 15:00:00,
2013-04-16 11:05:00,64.7,59.8,30.28,NW,319,0.0,3.0,84,0.00,BKN,SCT,0.00,362.0,WeatherDisplay:10.37,2013-04-16 15:05:00,
2013-04-16 11:10:00,64.8,59.9,30.29,NW,320,1.0,3.0,84,0.00,BKN,SCT,0.00,329.0,WeatherDisplay:10.37,2013-04-16 15:10:00,
2013-04-16 11:15:00,65.0,60.1,30.29,NW,319,0.0,2.0,84,0.00,BKN,SCT,0.00,396.0,WeatherDisplay:10.37,2013-04-16 15:15:00,
2013-04-16 11:20:00,65.3,60.4,30.29,NW,320,0.0,3.0,84,0.00,SCT,SCT,0.00,450.0,WeatherDisplay:10.37,2013-04-16 15:20:00,
2013-04-16 11:25:00,65.6,60.3,30.29,NW,320,1.0,4.0,83,0.00,SCT,SCT,0.00,369.0,WeatherDisplay:10.37,2013-04-16 15:25:00,
2013-04-16 11:30:00,65.9,60.6,30.29,NW,318,1.0,4.0,83,0.00,SCT,SCT,0.00,397.0,WeatherDisplay:10.37,2013-04-16 15:30:00,
2013-04-16 11:35:00,66.2,60.5,30.29,NW,316,1.0,4.0,82,0.00,SCT,SCT,0.00,334.0,WeatherDisplay:10.37,2013-04-16 15:35:00,
2013-04-16 11:45:00,66.8,61.2,30.29,NW,306,0.0,3.0,82,0.00,SCT,SCT,0.00,427.0,WeatherDisplay:10.37,2013-04-16 15:45:00,
2013-04-16 11:50:00,67.4,61.7,30.28,NNW,337,2.0,5.0,82,0.00,FEW,SCT,0.00,807.0,WeatherDisplay:10.37,2013-04-16 15:50:00,
2013-04-16 11:55:00,68.1,62.4,30.28,NNE,26,2.0,6.0,82,0.00,CLR,SCT,0.00,858.0,WeatherDisplay:10.37,2013-04-16 15:55:00,
2013-04-16 12:00:00,68.6,62.2,30.28,SE,134,2.0,7.0,80,0.00,CLR,SCT,0.00,988.0,WeatherDisplay:10.37,2013-04-16 16:00:00,
2013-04-16 12:05:00,69.2,62.4,30.28,SE,143,0.0,3.0,79,0.00,CLR,SCT,0.00,884.0,WeatherDisplay:10.37,2013-04-16 16:05:00,
2013-04-16 12:10:00,69.9,63.1,30.28,SSE,148,2.0,5.0,79,0.00,CLR,SCT,0.00,1037.0,WeatherDisplay:10.37,2013-04-16 16:10:00,
2013-04-16 12:15:00,70.4,63.6,30.27,SSE,148,2.0,4.0,79,0.00,CLR,SCT,0.00,378.0,WeatherDisplay:10.37,2013-04-16 16:15:00,
2013-04-16 12:20:00,70.6,62.3,30.27,SSE,151,1.0,2.0,75,0.00,FEW,SCT,0.00,710.0,WeatherDisplay:10.37,2013-04-16 16:20:00,
2013-04-16 12:25:00,70.7,62.0,30.27,South,178,0.0,4.0,74,0.00,SCT,SCT,0.00,1058.0,WeatherDisplay:10.37,2013-04-16 16:25:00,
2013-04-16 12:30:00,71.1,63.2,30.27,South,188,5.0,7.0,76,0.00,CLR,SCT,0.00,1106.0,WeatherDisplay:10.37,2013-04-16 16:30:00,
2013-04-16 12:35:00,71.7,62.9,30.27,SW,214,5.0,7.0,74,0.00,CLR,SCT,0.00,974.0,WeatherDisplay:10.37,2013-04-16 16:35:00,
2013-04-16 12:40:00,71.9,63.6,30.27,SW,231,1.0,5.0,75,0.00,CLR,SCT,0.00,1113.0,WeatherDisplay:10.37,2013-04-16 16:40:00,
2013-04-16 12:45:00,72.3,62.4,30.27,WSW,242,1.0,5.0,71,0.00,CLR,SCT,0.00,1051.0,WeatherDisplay:10.37,2013-04-16 16:45:00,
2013-04-16 12:50:00,72.5,62.6,30.26,SW,230,2.0,8.0,71,0.00,FEW,SCT,0.00,408.0,WeatherDisplay:10.37,2013-04-16 16:50:00,
2013-04-16 12:55:00,72.5,63.4,30.26,SSW,203,2.0,9.0,73,0.00,SCT,SCT,0.00,1146.0,WeatherDisplay:10.37,2013-04-16 16:55:00,
2013-04-16 13:00:00,73.0,62.6,30.26,South,187,5.0,10.0,70,0.00,FEW,SCT,0.00,1137.0,WeatherDisplay:10.37,2013-04-16 17:00:00,
2013-04-16 13:05:00,73.4,62.2,30.25,South,180,1.0,6.0,68,0.00,CLR,SCT,0.00,1109.0,WeatherDisplay:10.37,2013-04-16 17:05:00,
2013-04-16 13:10:00,73.9,62.6,30.25,SSW,195,5.0,8.0,68,0.00,CLR,SCT,0.00,1072.0,WeatherDisplay:10.37,2013-04-16 17:10:00,
2013-04-16 13:15:00,74.1,62.9,30.25,SSW,197,2.0,7.0,68,0.00,CLR,SCT,0.00,1071.0,WeatherDisplay:10.37,2013-04-16 17:15:00,
2013-04-16 13:20:00,73.9,62.3,30.25,SSE,167,1.0,10.0,67,0.00,FEW,SCT,0.00,512.0,WeatherDisplay:10.37,2013-04-16 17:20:00,
2013-04-16 13:25:00,74.1,62.4,30.25,SSE,161,2.0,10.0,67,0.00,SCT,SCT,0.00,427.0,WeatherDisplay:10.37,2013-04-16 17:25:00,
2013-04-16 13:30:00,74.2,62.1,30.24,SSE,168,2.0,5.0,66,0.00,BKN,SCT,0.00,427.0,WeatherDisplay:10.37,2013-04-16 17:30:00,
2013-04-16 13:35:00,74.2,61.7,30.24,SSE,167,2.0,10.0,65,0.00,SCT,SCT,0.00,863.0,WeatherDisplay:10.37,2013-04-16 17:35:00,
2013-04-16 13:40:00,74.6,62.1,30.24,SSW,194,5.0,7.0,65,0.00,CLR,SCT,0.00,1136.0,WeatherDisplay:10.37,2013-04-16 17:40:00,
2013-04-16 13:45:00,75.0,63.3,30.24,SW,214,2.0,6.0,67,0.00,CLR,SCT,0.00,1113.0,WeatherDisplay:10.37,2013-04-16 17:45:00,
2013-04-16 13:50:00,75.0,62.0,30.24,SSW,199,2.0,5.0,64,0.00,CLR,SCT,0.00,1056.0,WeatherDisplay:10.37,2013-04-16 17:50:00,
2013-04-16 13:55:00,75.1,62.1,30.24,SSW,204,5.0,8.0,64,0.00,CLR,SCT,0.00,1030.0,WeatherDisplay:10.37,2013-04-16 17:55:00,
2013-04-16 14:00:00,75.2,61.7,30.23,SW,222,0.0,5.0,63,0.00,CLR,SCT,0.00,1025.0,WeatherDisplay:10.37,2013-04-16 18:00:00,
2013-04-16 14:05:00,75.3,62.3,30.23,SW,236,6.0,10.0,64,0.00,CLR,SCT,0.00,1002.0,WeatherDisplay:10.37,2013-04-16 18:05:00,
2013-04-16 14:10:00,75.7,62.2,30.23,SW,235,3.0,5.0,63,0.00,CLR,SCT,0.00,1055.0,WeatherDisplay:10.37,2013-04-16 18:10:00,
2013-04-16 14:15:00,75.9,61.0,30.23,SW,226,2.0,10.0,60,0.00,CLR,SCT,0.00,1039.0,WeatherDisplay:10.37,2013-04-16 18:15:00,
2013-04-16 14:20:00,76.2,62.2,30.22,SW,224,3.0,7.0,62,0.00,CLR,SCT,0.00,933.0,WeatherDisplay:10.37,2013-04-16 18:20:00,
2013-04-16 14:25:00,76.3,61.9,30.22,SSW,205,5.0,9.0,61,0.00,CLR,SCT,0.00,733.0,WeatherDisplay:10.37,2013-04-16 18:25:00,
2013-04-16 14:30:00,76.3,60.9,30.22,South,185,1.0,7.0,59,0.00,FEW,SCT,0.00,939.0,WeatherDisplay:10.37,2013-04-16 18:30:00,
2013-04-16 14:35:00,76.2,60.8,30.22,South,172,1.0,4.0,59,0.00,FEW,SCT,0.00,956.0,WeatherDisplay:10.37,2013-04-16 18:35:00,
2013-04-16 14:40:00,76.2,62.2,30.21,SSE,161,0.0,6.0,62,0.00,CLR,SCT,0.00,919.0,WeatherDisplay:10.37,2013-04-16 18:40:00,
2013-04-16 14:45:00,76.6,62.1,30.21,SSW,198,3.0,10.0,61,0.00,CLR,SCT,0.00,888.0,WeatherDisplay:10.37,2013-04-16 18:45:00,
2013-04-16 14:50:00,76.8,61.4,30.21,SW,222,3.0,6.0,59,0.00,FEW,SCT,0.00,404.0,WeatherDisplay:10.37,2013-04-16 18:50:00,
2013-04-16 14:55:00,76.8,60.9,30.21,SSW,197,2.0,10.0,58,0.00,FEW,SCT,0.00,895.0,WeatherDisplay:10.37,2013-04-16 18:55:00,
2013-04-16 15:00:00,76.8,60.9,30.20,SSE,153,5.0,8.0,58,0.00,FEW,SCT,0.00,339.0,WeatherDisplay:10.37,2013-04-16 19:00:00,
2013-04-16 15:05:00,76.5,60.6,30.20,SE,127,2.0,6.0,58,0.00,SCT,SCT,0.00,874.0,WeatherDisplay:10.37,2013-04-16 19:05:00,
2013-04-16 15:10:00,76.5,61.6,30.20,SSE,165,6.0,10.0,60,0.00,SCT,SCT,0.00,816.0,WeatherDisplay:10.37,2013-04-16 19:10:00,
2013-04-16 15:15:00,76.8,60.9,30.19,SSW,206,1.0,10.0,58,0.00,FEW,SCT,0.00,485.0,WeatherDisplay:10.37,2013-04-16 19:15:00,
2013-04-16 15:20:00,76.9,61.5,30.19,SSW,193,3.0,9.0,59,0.00,FEW,SCT,0.00,809.0,WeatherDisplay:10.37,2013-04-16 19:20:00,
2013-04-16 15:25:00,76.9,60.5,30.19,SSE,157,6.0,9.0,57,0.00,FEW,SCT,0.00,860.0,WeatherDisplay:10.37,2013-04-16 19:25:00,
2013-04-16 15:30:00,77.0,61.5,30.19,South,174,3.0,13.0,59,0.00,CLR,SCT,0.00,856.0,WeatherDisplay:10.37,2013-04-16 19:30:00,
2013-04-16 15:35:00,77.3,60.4,30.19,SSW,212,5.0,10.0,56,0.00,CLR,SCT,0.00,888.0,WeatherDisplay:10.37,2013-04-16 19:35:00,
2013-04-16 15:40:00,77.7,61.2,30.18,SSW,211,2.0,6.0,57,0.00,CLR,SCT,0.00,888.0,WeatherDisplay:10.37,2013-04-16 19:40:00,
2013-04-16 15:45:00,77.8,60.8,30.18,SSW,207,3.0,7.0,56,0.00,CLR,SCT,0.00,192.0,WeatherDisplay:10.37,2013-04-16 19:45:00,
2013-04-16 15:50:00,77.6,60.2,30.18,SSW,206,3.0,6.0,55,0.00,SCT,SCT,0.00,805.0,WeatherDisplay:10.37,2013-04-16 19:50:00,
2013-04-16 15:55:00,77.7,60.2,30.18,South,180,3.0,10.0,55,0.00,SCT,SCT,0.00,230.0,WeatherDisplay:10.37,2013-04-16 19:55:00,
2013-04-16 16:00:00,77.7,60.7,30.17,South,171,6.0,7.0,56,0.00,FEW,SCT,0.00,817.0,WeatherDisplay:10.37,2013-04-16 20:00:00,
2013-04-16 16:05:00,77.7,60.2,30.17,SSW,197,6.0,8.0,55,0.00,CLR,SCT,0.00,796.0,WeatherDisplay:10.37,2013-04-16 20:05:00,
2013-04-16 16:10:00,77.5,60.1,30.17,SW,219,0.0,6.0,55,0.00,FEW,SCT,0.00,786.0,WeatherDisplay:10.37,2013-04-16 20:10:00,
2013-04-16 16:15:00,77.5,61.1,30.17,SSW,213,3.0,7.0,57,0.00,FEW,SCT,0.00,773.0,WeatherDisplay:10.37,2013-04-16 20:15:00,
2013-04-16 16:20:00,77.7,60.2,30.17,SSW,206,2.0,6.0,55,0.00,CLR,SCT,0.00,738.0,WeatherDisplay:10.37,2013-04-16 20:20:00,
2013-04-16 16:25:00,77.8,59.8,30.17,SSW,197,1.0,7.0,54,0.00,FEW,SCT,0.00,209.0,WeatherDisplay:10.37,2013-04-16 20:25:00,
2013-04-16 16:30:00,77.4,59.5,30.17,SE,133,6.0,12.0,54,0.00,SCT,SCT,0.00,267.0,WeatherDisplay:10.37,2013-04-16 20:30:00,
2013-04-16 16:35:00,76.9,59.5,30.17,ESE,122,3.0,12.0,55,0.00,FEW,SCT,0.00,754.0,WeatherDisplay:10.37,2013-04-16 20:35:00,
2013-04-16 16:45:00,76.5,59.6,30.16,SE,128,2.0,6.0,56,0.00,SCT,SCT,0.00,668.0,WeatherDisplay:10.37,2013-04-16 20:45:00,
2013-04-16 16:50:00,76.5,59.6,30.16,SE,140,3.0,8.0,56,0.00,SCT,SCT,0.00,155.0,WeatherDisplay:10.37,2013-04-16 20:50:00,
2013-04-16 17:05:00,76.6,60.2,30.16,SE,130,2.0,7.0,57,0.00,FEW,SCT,0.00,624.0,WeatherDisplay:10.37,2013-04-16 21:05:00,
2013-04-16 17:10:00,76.9,60.0,30.16,SSE,151,5.0,7.0,56,0.00,CLR,SCT,0.00,617.0,WeatherDisplay:10.37,2013-04-16 21:10:00,
2013-04-16 17:15:00,77.1,59.7,30.17,SSE,148,5.0,8.0,55,0.00,CLR,SCT,0.00,568.0,WeatherDisplay:10.37,2013-04-16 21:15:00,
2013-04-16 17:20:00,77.3,59.9,30.17,SE,136,1.0,13.0,55,0.00,CLR,SCT,0.00,577.0,WeatherDisplay:10.37,2013-04-16 21:20:00,
2013-04-16 17:25:00,77.3,59.4,30.17,SE,128,2.0,10.0,54,0.00,CLR,SCT,0.00,529.0,WeatherDisplay:10.37,2013-04-16 21:25:00,
2013-04-16 17:30:00,77.5,60.1,30.17,SE,142,2.0,6.0,55,0.00,CLR,SCT,0.00,501.0,WeatherDisplay:10.37,2013-04-16 21:30:00,
2013-04-16 17:35:00,77.6,59.6,30.16,SSE,150,3.0,8.0,54,0.00,CLR,SCT,0.00,424.0,WeatherDisplay:10.37,2013-04-16 21:35:00,
2013-04-16 17:40:00,77.6,59.1,30.17,SE,140,3.0,6.0,53,0.00,CLR,SCT,0.00,480.0,WeatherDisplay:10.37,2013-04-16 21:40:00,
2013-04-16 17:45:00,77.6,60.7,30.17,SE,134,2.0,7.0,56,0.00,CLR,SCT,0.00,418.0,WeatherDisplay:10.37,2013-04-16 21:45:00,
2013-04-16 17:50:00,77.9,60.4,30.17,SSE,159,3.0,6.0,55,0.00,CLR,SCT,0.00,403.0,WeatherDisplay:10.37,2013-04-16 21:50:00,
2013-04-16 17:55:00,77.9,59.3,30.17,SSW,208,2.0,6.0,53,0.00,SCT,SCT,0.00,118.0,WeatherDisplay:10.37,2013-04-16 21:55:00,
2013-04-16 18:00:00,77.7,59.7,30.17,SW,229,2.0,4.0,54,0.00,SCT,SCT,0.00,176.0,WeatherDisplay:10.37,2013-04-16 22:00:00,
2013-04-16 18:05:00,77.5,59.5,30.17,SW,232,2.0,6.0,54,0.00,SCT,SCT,0.00,118.0,WeatherDisplay:10.37,2013-04-16 22:05:00,
2013-04-16 18:10:00,77.1,58.7,30.17,SW,229,1.0,6.0,53,0.00,BKN,SCT,0.00,104.0,WeatherDisplay:10.37,2013-04-16 22:10:00,
2013-04-16 18:15:00,76.9,59.0,30.17,SW,229,1.0,5.0,54,0.00,BKN,SCT,0.00,128.0,WeatherDisplay:10.37,2013-04-16 22:15:00,
2013-04-16 18:20:00,76.7,58.8,30.16,SW,224,2.0,4.0,54,0.00,BKN,SCT,0.00,137.0,WeatherDisplay:10.37,2013-04-16 22:20:00,
2013-04-16 18:25:00,76.5,59.2,30.16,SW,221,1.0,4.0,55,0.00,SCT,SCT,0.00,290.0,WeatherDisplay:10.37,2013-04-16 22:25:00,
2013-04-16 18:30:00,76.5,59.1,30.16,SW,214,1.0,4.0,55,0.00,CLR,SCT,0.00,197.0,WeatherDisplay:10.37,2013-04-16 22:30:00,
2013-04-16 18:35:00,76.6,59.2,30.16,SSW,198,5.0,7.0,55,0.00,CLR,SCT,0.00,192.0,WeatherDisplay:10.37,2013-04-16 22:35:00,
2013-04-16 18:40:00,76.6,59.7,30.16,South,187,1.0,4.0,56,0.00,FEW,SCT,0.00,183.0,WeatherDisplay:10.37,2013-04-16 22:40:00,
2013-04-16 18:45:00,76.6,59.2,30.16,South,185,1.0,5.0,55,0.00,CLR,SCT,0.00,176.0,WeatherDisplay:10.37,2013-04-16 22:45:00,
2013-04-16 18:50:00,76.6,59.2,30.16,SSW,194,2.0,7.0,55,0.00,CLR,SCT,0.00,213.0,WeatherDisplay:10.37,2013-04-16 22:50:00,
2013-04-16 18:55:00,76.6,59.2,30.16,South,183,2.0,5.0,55,0.00,CLR,SCT,0.00,209.0,WeatherDisplay:10.37,2013-04-16 22:55:00,
2013-04-16 19:00:00,76.6,59.2,30.16,SSE,154,1.0,4.0,55,0.00,CLR,SCT,0.00,185.0,WeatherDisplay:10.37,2013-04-16 23:00:00,
2013-04-16 19:05:00,76.5,59.7,30.16,SSE,150,0.0,3.0,56,0.00,CLR,SCT,0.00,160.0,WeatherDisplay:10.37,2013-04-16 23:05:00,
2013-04-16 19:10:00,76.5,59.1,30.16,SSE,150,1.0,3.0,55,0.00,BKN,SCT,0.00,56.0,WeatherDisplay:10.37,2013-04-16 23:10:00,
2013-04-16 19:20:00,76.2,58.9,30.16,SSE,150,0.0,5.0,55,0.00,BKN,SCT,0.00,37.0,WeatherDisplay:10.37,2013-04-16 23:20:00,
2013-04-16 19:25:00,76.0,58.7,30.16,SSE,150,0.0,2.0,55,0.00,SCT,SCT,0.00,46.0,WeatherDisplay:10.37,2013-04-16 23:25:00,
2013-04-16 19:30:00,75.8,59.0,30.16,SSE,150,0.0,2.0,56,0.00,SCT,SCT,0.00,40.0,WeatherDisplay:10.37,2013-04-16 23:30:00,
2013-04-16 19:35:00,75.5,58.7,30.16,SSE,150,0.0,1.0,56,0.00,SCT,SCT,0.00,30.0,WeatherDisplay:10.37,2013-04-16 23:35:00,
2013-04-16 19:40:00,75.3,59.0,30.16,SSE,150,1.0,3.0,57,0.00,SCT,SCT,0.00,30.0,WeatherDisplay:10.37,2013-04-16 23:40:00,
2013-04-16 19:45:00,75.0,58.7,30.16,SSE,150,0.0,2.0,57,0.00,SCT,SCT,0.00,19.0,WeatherDisplay:10.37,2013-04-16 23:45:00,
2013-04-16 19:50:00,74.7,58.5,30.16,SSE,150,0.0,1.0,57,0.00,SCT,SCT,0.00,11.0,WeatherDisplay:10.37,2013-04-16 23:50:00,
2013-04-16 19:55:00,74.4,58.7,30.16,SSE,150,0.0,1.0,58,0.00,SCT,SCT,0.00,5.0,WeatherDisplay:10.37,2013-04-16 23:55:00,
2013-04-16 20:00:00,74.1,58.4,30.16,SSE,150,0.0,1.0,58,0.00,SCT,SCT,0.00,0.0,WeatherDisplay:10.37,2013-04-17 00:00:00,
2013-04-16 20:05:00,73.8,58.6,30.16,SSE,150,0.0,0.0,59,0.00,SCT,SCT,0.00,0.0,WeatherDisplay:10.37,2013-04-17 00:05:00,
2013-04-16 20:10:00,73.5,58.8,30.16,SSE,150,0.0,0.0,60,0.00,SCT,SCT,0.00,0.0,WeatherDisplay:10.37,2013-04-17 00:10:00,
2013-04-16 20:15:00,73.0,59.2,30.17,SSE,150,0.0,1.0,62,0.00,SCT,SCT,0.00,0.0,WeatherDisplay:10.37,2013-04-17 00:15:00,
2013-04-16 20:20:00,71.9,59.1,30.16,SSE,150,0.0,1.0,64,0.00,SCT,SCT,0.00,0.0,WeatherDisplay:10.37,2013-04-17 00:20:00,
2013-04-16 20:30:00,69.9,58.8,30.17,SSE,150,0.0,1.0,68,0.00,SCT,SCT,0.00,0.0,WeatherDisplay:10.37,2013-04-17 00:30:00,
2013-04-16 20:35:00,69.5,58.5,30.17,SSE,150,0.0,0.0,68,0.00,SCT,SCT,0.00,0.0,WeatherDisplay:10.37,2013-04-17 00:35:00,
2013-04-16 20:40:00,69.0,58.4,30.17,SSE,150,0.0,0.0,69,0.00,SCT,SCT,0.00,0.0,WeatherDisplay:10.37,2013-04-17 00:40:00,
2013-04-16 20:45:00,68.5,58.4,30.17,SSE,150,0.0,1.0,70,0.00,SCT,SCT,0.00,0.0,WeatherDisplay:10.37,2013-04-17 00:45:00,
2013-04-16 20:50:00,67.9,58.2,30.17,SSE,150,0.0,1.0,71,0.00,SCT,SCT,0.00,0.0,WeatherDisplay:10.37,2013-04-17 00:50:00,
2013-04-16 20:55:00,67.2,58.3,30.17,SSE,150,0.0,1.0,73,0.00,SCT,SCT,0.00,0.0,WeatherDisplay:10.37,2013-04-17 00:55:00,
2013-04-16 21:00:00,66.5,58.4,30.17,SSE,150,0.0,1.0,75,0.00,SCT,SCT,0.00,0.0,WeatherDisplay:10.37,2013-04-17 01:00:00,
2013-04-16 21:05:00,66.0,58.5,30.18,SSE,150,0.0,1.0,77,0.00,SCT,SCT,0.00,0.0,WeatherDisplay:10.37,2013-04-17 01:05:00,
2013-04-16 21:10:00,65.4,58.4,30.18,SSE,150,0.0,1.0,78,0.00,SCT,SCT,0.00,0.0,WeatherDisplay:10.37,2013-04-17 01:10:00,
2013-04-16 21:15:00,65.0,58.0,30.18,SSE,150,0.0,1.0,78,0.00,SCT,SCT,0.00,0.0,WeatherDisplay:10.37,2013-04-17 01:15:00,
2013-04-16 21:20:00,64.9,58.2,30.18,SSE,150,0.0,0.0,79,0.00,SCT,SCT,0.00,0.0,WeatherDisplay:10.37,2013-04-17 01:20:00,
2013-04-16 21:25:00,64.7,58.0,30.18,SSE,150,0.0,0.0,79,0.00,SCT,SCT,0.00,0.0,WeatherDisplay:10.37,2013-04-17 01:25:00,
2013-04-16 21:30:00,64.5,58.2,30.18,SSE,150,0.0,0.0,80,0.00,SCT,SCT,0.00,0.0,WeatherDisplay:10.37,2013-04-17 01:30:00,
2013-04-16 21:35:00,64.3,58.0,30.18,SSE,150,0.0,1.0,80,0.00,SCT,SCT,0.00,0.0,WeatherDisplay:10.37,2013-04-17 01:35:00,
2013-04-16 21:40:00,64.0,58.1,30.18,SSE,150,0.0,1.0,81,0.00,SCT,SCT,0.00,0.0,WeatherDisplay:10.37,2013-04-17 01:40:00,
2013-04-16 21:45:00,63.8,57.9,30.19,SSE,150,0.0,0.0,81,0.00,SCT,SCT,0.00,0.0,WeatherDisplay:10.37,2013-04-17 01:45:00,
2013-04-16 21:50:00,63.6,58.0,30.19,SSE,150,0.0,0.0,82,0.00,SCT,SCT,0.00,0.0,WeatherDisplay:10.37,2013-04-17 01:50:00,
2013-04-16 21:55:00,63.5,58.2,30.19,SSE,150,0.0,0.0,83,0.00,SCT,SCT,0.00,0.0,WeatherDisplay:10.37,2013-04-17 01:55:00,
2013-04-16 22:00:00,63.4,57.8,30.19,SSE,150,0.0,0.0,82,0.00,SCT,SCT,0.00,0.0,WeatherDisplay:10.37,2013-04-17 02:00:00,
2013-04-16 22:05:00,63.2,57.3,30.20,SSE,150,0.0,0.0,81,0.00,SCT,SCT,0.00,0.0,WeatherDisplay:10.37,2013-04-17 02:05:00,
2013-04-16 22:10:00,63.1,57.2,30.20,SSE,150,0.0,0.0,81,0.00,SCT,SCT,0.00,0.0,WeatherDisplay:10.37,2013-04-17 02:10:00,
2013-04-16 22:15:00,63.0,57.4,30.20,SSE,150,0.0,0.0,82,0.00,SCT,SCT,0.00,0.0,WeatherDisplay:10.37,2013-04-17 02:15:00,
2013-04-16 22:20:00,62.9,57.3,30.20,SSE,150,0.0,0.0,82,0.00,SCT,SCT,0.00,0.0,WeatherDisplay:10.37,2013-04-17 02:20:00,
2013-04-16 22:25:00,62.7,57.1,30.20,SSE,150,0.0,0.0,82,0.00,SCT,SCT,0.00,0.0,WeatherDisplay:10.37,2013-04-17 02:25:00,
2013-04-16 22:30:00,62.5,57.3,30.20,SSE,150,0.0,0.0,83,0.00,SCT,SCT,0.00,0.0,WeatherDisplay:10.37,2013-04-17 02:30:00,
2013-04-16 22:35:00,62.3,57.4,30.20,SSE,150,0.0,0.0,84,0.00,SCT,SCT,0.00,0.0,WeatherDisplay:10.37,2013-04-17 02:35:00,
2013-04-16 22:40:00,62.1,57.2,30.20,SSE,150,0.0,0.0,84,0.00,SCT,SCT,0.00,0.0,WeatherDisplay:10.37,2013-04-17 02:40:00,
2013-04-16 22:45:00,61.8,56.9,30.20,SSE,150,0.0,0.0,84,0.00,SCT,SCT,0.00,0.0,WeatherDisplay:10.37,2013-04-17 02:45:00,
2013-04-16 22:50:00,61.7,57.1,30.20,SSE,150,0.0,0.0,85,0.00,SCT,SCT,0.00,0.0,WeatherDisplay:10.37,2013-04-17 02:50:00,
2013-04-16 22:55:00,61.5,56.9,30.20,SSE,150,0.0,0.0,85,0.00,SCT,SCT,0.00,0.0,WeatherDisplay:10.37,2013-04-17 02:55:00,
2013-04-16 23:00:00,61.4,57.1,30.20,SSE,150,0.0,0.0,86,0.00,SCT,SCT,0.00,0.0,WeatherDisplay:10.37,2013-04-17 03:00:00,
2013-04-16 23:05:00,61.2,57.0,30.20,SSE,150,0.0,0.0,86,0.00,SCT,SCT,0.00,0.0,WeatherDisplay:10.37,2013-04-17 03:05:00,
2013-04-16 23:10:00,61.1,56.9,30.20,SSE,150,0.0,0.0,86,0.00,SCT,SCT,0.00,0.0,WeatherDisplay:10.37,2013-04-17 03:10:00,
2013-04-16 23:15:00,61.0,56.8,30.20,SSE,150,0.0,0.0,86,0.00,SCT,SCT,0.00,0.0,WeatherDisplay:10.37,2013-04-17 03:15:00,
2013-04-16 23:20:00,60.9,56.7,30.20,SSE,150,0.0,0.0,86,0.00,SCT,SCT,0.00,0.0,WeatherDisplay:10.37,2013-04-17 03:20:00,
2013-04-16 23:25:00,60.8,56.6,30.20,SSE,150,0.0,0.0,86,0.00,SCT,SCT,0.00,0.0,WeatherDisplay:10.37,2013-04-17 03:25:00,
2013-04-16 23:30:00,60.7,56.5,30.19,SSE,150,0.0,0.0,86,0.00,SCT,SCT,0.00,0.0,WeatherDisplay:10.37,2013-04-17 03:30:00,
2013-04-16 23:35:00,60.5,56.3,30.19,SSE,150,0.0,0.0,86,0.00,SCT,SCT,0.00,0.0,WeatherDisplay:10.37,2013-04-17 03:35:00,
2013-04-16 23:40:00,60.4,56.2,30.19,SSE,150,0.0,0.0,86,0.00,SCT,SCT,0.00,0.0,WeatherDisplay:10.37,2013-04-17 03:40:00,
2013-04-16 23:45:00,60.3,56.1,30.19,SSE,150,0.0,0.0,86,0.00,SCT,SCT,0.00,0.0,WeatherDisplay:10.37,2013-04-17 03:45:00,
2013-04-16 23:50:00,60.2,56.0,30.19,SSE,150,0.0,0.0,86,0.00,SCT,SCT,0.00,0.0,WeatherDisplay:10.37,2013-04-17 03:50:00,
2013-04-16 23:55:00,60.1,56.2,30.19,SSE,150,0.0,0.0,87,0.00,SCT,SCT,0.00,0.0,WeatherDisplay:10.37,2013-04-17 03:55:00,